Hourly Weather Rudka-Chervyns'ka

Today, 16 April, Friday

Time Temperature Precipitation Wind Pressure Humidity
00:00 +5°C° 0.2 mm 3 mps 745 mmHg 95%
01:00 +5°C° 0.2 mm 3 mps 745 mmHg 95%
02:00 +5°C° 0.2 mm 3 mps 744 mmHg 95%
03:00 +4°C° 0.9 mm 3 mps 744 mmHg 96%
04:00 +4°C° 0.9 mm 3 mps 744 mmHg 96%
05:00 +4°C° 0.9 mm 3 mps 743 mmHg 97%
06:00 +5°C° 0.7 mm 2 mps 743 mmHg 97%
07:00 +5°C° 0.7 mm 2 mps 743 mmHg 97%
08:00 +5°C° 0.7 mm 2 mps 743 mmHg 97%
09:00 +6°C° 0.6 mm 2 mps 743 mmHg 96%
10:00 +7°C° 0.6 mm 1 mps 743 mmHg 96%
11:00 +7°C° 0.6 mm 1 mps 744 mmHg 95%
12:00 +7°C° 0.5 mm 1 mps 744 mmHg 94%
13:00 +7°C° 0.5 mm 1 mps 744 mmHg 93%
14:00 +7°C° 0.5 mm 1 mps 744 mmHg 92%
15:00 +6°C° 0.1 mm 2 mps 744 mmHg 91%
16:00 +6°C° 0.1 mm 2 mps 745 mmHg 91%
17:00 +6°C° 0.1 mm 2 mps 745 mmHg 91%
18:00 +5°C° 0 mm 2 mps 745 mmHg 92%
19:00 +5°C° 0 mm 2 mps 745 mmHg 93%
20:00 +5°C° 0 mm 2 mps 746 mmHg 94%
21:00 +5°C° 0 mm 1 mps 746 mmHg 95%
22:00 +5°C° 0 mm 1 mps 746 mmHg 95%
23:00 +5°C° 0 mm 1 mps 746 mmHg 95%

Tomorrow, 17 April, Saturday

Time Temperature Precipitation Wind Pressure Humidity
00:00 +5°C° 0 mm 1 mps 747 mmHg 95%
01:00 +5°C° 0 mm 1 mps 747 mmHg 95%
02:00 +5°C° 0 mm 1 mps 747 mmHg 95%
03:00 +5°C° 0 mm 1 mps 747 mmHg 95%
04:00 +5°C° 0 mm 1 mps 747 mmHg 95%
05:00 +5°C° 0 mm 1 mps 747 mmHg 96%
06:00 +5°C° 0 mm 1 mps 748 mmHg 94%
07:00 +5°C° 0 mm 1 mps 748 mmHg 93%
08:00 +5°C° 0 mm 1 mps 749 mmHg 92%
09:00 +6°C° 0 mm 1 mps 749 mmHg 88%
10:00 +7°C° 0 mm 1 mps 749 mmHg 84%
11:00 +8°C° 0 mm 1 mps 750 mmHg 80%
12:00 +9°C° 0 mm 1 mps 750 mmHg 77%
13:00 +10°C° 0 mm 1 mps 750 mmHg 74%
14:00 +10°C° 0 mm 1 mps 750 mmHg 71%
15:00 +11°C° 0 mm 1 mps 750 mmHg 70%
16:00 +11°C° 0 mm 1 mps 750 mmHg 69%
17:00 +11°C° 0 mm 1 mps 750 mmHg 68%
18:00 +10°C° 0 mm 1 mps 750 mmHg 73%
19:00 +9°C° 0 mm 1 mps 750 mmHg 79%
20:00 +8°C° 0 mm 1 mps 750 mmHg 84%
21:00 +7°C° 0 mm 1 mps 750 mmHg 85%
22:00 +6°C° 0 mm 2 mps 750 mmHg 87%
23:00 +6°C° 0 mm 2 mps 750 mmHg 89%

Day after tomorrow, 18 April, Sunday

Time Temperature Precipitation Wind Pressure Humidity
00:00 +6°C° 0 mm 2 mps 750 mmHg 89%
01:00 +6°C° 0 mm 2 mps 749 mmHg 90%
02:00 +6°C° 0 mm 2 mps 749 mmHg 90%
03:00 +6°C° 0.1 mm 2 mps 749 mmHg 91%
04:00 +6°C° 0.1 mm 2 mps 749 mmHg 93%
05:00 +6°C° 0.1 mm 2 mps 748 mmHg 94%
06:00 +6°C° 0.9 mm 2 mps 748 mmHg 95%
07:00 +7°C° 0.9 mm 2 mps 748 mmHg 95%
08:00 +7°C° 0.9 mm 2 mps 748 mmHg 96%
09:00 +7°C° 0.3 mm 2 mps 748 mmHg 94%
10:00 +8°C° 0.3 mm 2 mps 748 mmHg 92%
11:00 +9°C° 0.3 mm 2 mps 748 mmHg 90%
12:00 +9°C° 0.1 mm 2 mps 748 mmHg 87%
13:00 +10°C° 0.1 mm 3 mps 748 mmHg 84%
14:00 +10°C° 0.1 mm 3 mps 748 mmHg 80%
15:00 +10°C° 0.1 mm 3 mps 748 mmHg 80%
16:00 +10°C° 0.1 mm 3 mps 748 mmHg 81%
17:00 +10°C° 0.1 mm 3 mps 748 mmHg 81%
18:00 +10°C° 0.1 mm 2 mps 748 mmHg 83%
19:00 +9°C° 0.1 mm 2 mps 748 mmHg 86%
20:00 +8°C° 0.1 mm 2 mps 749 mmHg 88%
21:00 +7°C° 0 mm 3 mps 749 mmHg 89%
22:00 +5°C° 0 mm 3 mps 749 mmHg 91%
23:00 +4°C° 0 mm 3 mps 749 mmHg 92%

19 April, Monday

Time Temperature Precipitation Wind Pressure Humidity
00:00 +4°C° 0 mm 3 mps 749 mmHg 93%
01:00 +4°C° 0 mm 2 mps 749 mmHg 93%
02:00 +3°C° 0 mm 2 mps 749 mmHg 94%
03:00 +3°C° 0 mm 2 mps 749 mmHg 93%
04:00 +3°C° 0 mm 2 mps 749 mmHg 92%
05:00 +3°C° 0 mm 2 mps 749 mmHg 91%
06:00 +4°C° 0 mm 2 mps 749 mmHg 87%
07:00 +6°C° 0 mm 2 mps 748 mmHg 84%
08:00 +7°C° 0 mm 3 mps 748 mmHg 81%
09:00 +8°C° 0 mm 3 mps 748 mmHg 76%
10:00 +9°C° 0 mm 3 mps 748 mmHg 70%
11:00 +10°C° 0 mm 3 mps 747 mmHg 65%
12:00 +10°C° 0.1 mm 3 mps 747 mmHg 63%
13:00 +11°C° 0.1 mm 3 mps 747 mmHg 62%
14:00 +11°C° 0.1 mm 3 mps 747 mmHg 60%
15:00 +11°C° 0.1 mm 3 mps 746 mmHg 62%
16:00 +10°C° 0.1 mm 4 mps 746 mmHg 65%
17:00 +10°C° 0.1 mm 4 mps 745 mmHg 67%
18:00 +9°C° 0.1 mm 3 mps 745 mmHg 74%
19:00 +7°C° 0.1 mm 3 mps 745 mmHg 81%
20:00 +6°C° 0.1 mm 2 mps 745 mmHg 88%
21:00 +6°C° 0 mm 2 mps 745 mmHg 90%
22:00 +5°C° 0 mm 2 mps 744 mmHg 92%
23:00 +4°C° 0 mm 2 mps 744 mmHg 95%

20 April, Tuesday

Time Temperature Precipitation Wind Pressure Humidity
00:00 +5°C° 0 mm 2 mps 744 mmHg 94%
01:00 +5°C° 0 mm 2 mps 743 mmHg 93%
02:00 +5°C° 0 mm 2 mps 743 mmHg 93%
03:00 +5°C° 0 mm 2 mps 742 mmHg 93%
04:00 +5°C° 0 mm 2 mps 742 mmHg 93%
05:00 +4°C° 0 mm 3 mps 741 mmHg 93%
06:00 +4°C° 0 mm 3 mps 741 mmHg 91%
07:00 +5°C° 0 mm 3 mps 741 mmHg 89%
08:00 +5°C° 0 mm 4 mps 740 mmHg 87%
09:00 +6°C° 0.1 mm 4 mps 740 mmHg 83%
10:00 +7°C° 0.1 mm 4 mps 740 mmHg 79%
11:00 +8°C° 0.1 mm 5 mps 739 mmHg 75%
12:00 +7°C° 0.1 mm 5 mps 739 mmHg 78%
13:00 +7°C° 0.1 mm 5 mps 739 mmHg 81%
14:00 +6°C° 0.1 mm 5 mps 738 mmHg 84%
15:00 +6°C° 0.1 mm 5 mps 738 mmHg 84%
16:00 +6°C° 0.1 mm 5 mps 738 mmHg 84%
17:00 +5°C° 0.1 mm 6 mps 737 mmHg 85%
18:00 +5°C° 0.2 mm 6 mps 737 mmHg 86%
19:00 +5°C° 0.2 mm 6 mps 737 mmHg 88%
20:00 +4°C° 0.2 mm 6 mps 737 mmHg 90%
21:00 +4°C° 0.7 mm 6 mps 736 mmHg 90%
22:00 +4°C° 0.7 mm 7 mps 736 mmHg 90%
23:00 +4°C° 0.7 mm 7 mps 736 mmHg 91%

21 April, Wednesday

Time Temperature Precipitation Wind Pressure Humidity
00:00 +4°C° 0.8 mm 8 mps 736 mmHg 90%
01:00 +4°C° 0.8 mm 8 mps 736 mmHg 90%
02:00 +2°C° 0.8 mm 8 mps 736 mmHg 89%
03:00 +2°C° 0.4 mm 8 mps 736 mmHg 88%
04:00 +2°C° 0.4 mm 8 mps 736 mmHg 87%
05:00 +2°C° 0.4 mm 8 mps 736 mmHg 86%
06:00 +2°C° 0.1 mm 8 mps 737 mmHg 85%
07:00 +2°C° 0.1 mm 8 mps 737 mmHg 83%
08:00 +4°C° 0.1 mm 8 mps 737 mmHg 82%
09:00 +4°C° 0 mm 8 mps 738 mmHg 80%
10:00 +5°C° 0 mm 8 mps 738 mmHg 77%
11:00 +6°C° 0 mm 8 mps 739 mmHg 75%
12:00 +6°C° 0.1 mm 8 mps 740 mmHg 72%
13:00 +8°C° 0.1 mm 7 mps 740 mmHg 69%
14:00 +9°C° 0.1 mm 7 mps 741 mmHg 67%
15:00 +9°C° 0.1 mm 7 mps 741 mmHg 67%
16:00 +8°C° 0.1 mm 7 mps 742 mmHg 66%
17:00 +8°C° 0.1 mm 6 mps 742 mmHg 66%
18:00 +8°C° 0 mm 6 mps 743 mmHg 68%
19:00 +7°C° 0 mm 5 mps 743 mmHg 70%
20:00 +6°C° 0 mm 4 mps 744 mmHg 72%
21:00 +5°C° 0 mm 4 mps 744 mmHg 76%
22:00 +5°C° 0 mm 3 mps 744 mmHg 80%
23:00 +4°C° 0 mm 3 mps 745 mmHg 83%
Show more